Terminal Aerodrome Forecast
Issued by NWS

Home | Current Version | Previous Version | Text Only | Print | Product List | Glossary On
Versions: 1 2 3 4 5 6 7 8 9 10 11 12 13 14 15 16 17 18 19 20 21 22 23 24 25 26 27 28 29 30 31 32 33 34 35 36 37 38 39 40 41 42 43
000
FTUS42 KRAH 271737
TAFINT
TAF
KINT 271737Z 2718/2818 32009G15KT P6SM SCT009 BKN040
      TEMPO 2718/2720 BKN009 BKN040
     FM272000 32010G16KT P6SM BKN050
     FM272300 32007KT P6SM SKC=

USA.gov is the U.S. government's official web portal to all federal, state and local government web resources and services.